[[{"header":{"parameterUnit":"m.s-1","parameterCategory":1,"la1":30.2991,"la2":30.254,"lo1":-89.0895,"lo2":-89.0444,"dy":0.0017,"dx":0.0017,"nx":28,"ny":28,"refTime":"2024-04-18T21:00:00:Z","depth":0,"parameterNumber":2,"parameterNumberName":"U-component_of_WINDS"},"data":[0,0,0,0,0,0,0,0,0,0,0,0,0,0,0,0,0,0,0,0,0,0,0,0,0,0,0,0,0,0,0,0,0,0,0,0,0,0,0,0,0,0,0,0,0,0,0,0,0,0,0,0,0,0,0,0,0,0,-0.005,-0.005,0,-0.0034,-0.0034,-0.0033,-0.0014,-0.0014,-0.0013,-0.0013,0.0004,0.0004,0.0004,0,0,0,0,0,0,0,0,0,0,0,0,0,-0.0063,-0.0063,-0.005,-0.005,-0.0049,-0.0034,-0.0034,-0.0033,-0.0014,-0.0014,-0.0013,-0.0013,0.0004,0.0004,0.0004,0,0,0,0,0,0,0,0,0,0,0,0,0,-0.0053,-0.0063,-0.005,-0.0038,-0.0037,-0.0034,-0.0034,-0.0033,-0.0014,-0.0014,-0.0013,-0.0013,0.0004,0.0004,0.0004,-0.0004,0,0,0.0005,0.0005,0,0,0,0,0,0,0,0,-0.0054,-0.0053,-0.004,-0.0039,-0.0037,-0.0025,-0.0032,-0.0023,-0.0014,-0.0023,-0.0013,-0.0012,-0.0006,-0.0005,-0.0003,-0.0003,-0.0002,0.0005,0.0005,0.0005,0.0005,0,0,0,0,0,0,0,-0.0055,-0.0053,-0.0043,-0.004,-0.0038,-0.0033,-0.0031,-0.003,-0.0017,-0.0022,-0.002,-0.0019,-0.0005,-0.0003,-0.0003,-0.0002,0.0005,0.0005,0.0005,0.0005,-0.0007,-0.0007,0,0,0,0,0,0,-0.0057,-0.0054,-0.0044,-0.0043,-0.0045,-0.0033,-0.0031,-0.003,-0.0017,-0.0015,-0.0019,-0.0018,-0.0004,-0.0003,-0.0002,-0.001,0.0005,0.0005,0.0006,-0.0006,-0.0007,-0.0007,0,0,0,0,0,0,-0.0057,-0.0056,-0.0045,-0.0048,-0.0046,-0.0034,-0.0032,-0.003,-0.0027,-0.0015,-0.0013,-0.002,-0.0004,-0.0002,-0.0003,-0.0009,0.0006,0.0006,-0.0006,-0.0006,-0.0007,-0.0025,0,0,0,0,0,0,-0.0058,-0.0057,-0.0059,-0.0048,-0.0046,-0.0046,-0.0032,-0.003,-0.0027,-0.0025,-0.0015,-0.0013,-0.0003,-0.0004,-0.0003,-0.0008,0.0006,-0.0005,-0.0006,-0.0007,-0.0024,-0.0027,-0.0029,0,0,0,0,0,-0.0058,-0.0065,-0.006,-0.0058,-0.0049,-0.0047,-0.0045,-0.0034,-0.0028,-0.003,-0.0022,-0.0013,-0.0009,-0.0004,-0.0003,-0.0008,-0.0005,-0.0006,-0.0007,-0.0023,-0.0026,-0.0029,0,0,0,0,0,0,-0.0077,-0.0063,-0.0057,-0.0061,-0.0055,-0.0043,-0.0046,-0.0038,-0.0034,-0.0032,-0.0019,-0.0017,-0.0019,-0.0014,-0.0009,-0.0015,-0.0005,-0.0006,-0.0018,-0.0021,-0.0023,-0.0024,0.0006,0,0,0,0,0,-0.0082,-0.0081,-0.0069,-0.0073,-0.007,-0.0059,-0.0057,-0.005,-0.0043,-0.004,-0.0033,-0.0027,-0.0024,-0.0022,-0.0019,-0.0024,-0.0021,-0.0027,-0.0029,-0.0031,-0.0032,-0.0033,-0.0035,-0.0011,-0.0011,-0.001,0,0,-0.0091,-0.0083,-0.0083,-0.0077,-0.0071,-0.007,-0.0057,-0.0057,-0.0056,-0.004,-0.004,-0.0035,-0.0027,-0.003,-0.0031,-0.0025,-0.0038,-0.0032,-0.0034,-0.0033,-0.0034,-0.0037,-0.0039,-0.0011,-0.0011,-0.0011,0,0,-0.0107,-0.0102,-0.0104,-0.0099,-0.0091,-0.0084,-0.0084,-0.0074,-0.007,-0.007,-0.0058,-0.0057,-0.0053,-0.0047,-0.0044,-0.0059,-0.005,-0.0059,-0.007,-0.0072,-0.0074,-0.0075,-0.008,-0.0082,-0.0059,-0.0059,-0.006,0,-0.0119,-0.0117,-0.0107,-0.0107,-0.0104,-0.009,-0.0093,-0.0089,-0.008,-0.0078,-0.0073,-0.0067,-0.0061,-0.0062,-0.0066,-0.0064,-0.0064,-0.0059,-0.0074,-0.0076,-0.0077,-0.0081,-0.0083,-0.0061,-0.006,-0.006,-0.006,0,-0.0133,-0.0132,-0.0135,-0.0127,-0.0125,-0.0126,-0.0115,-0.0114,-0.0107,-0.01,-0.01,-0.0092,-0.0087,-0.0087,-0.008,-0.0087,-0.0084,-0.0077,-0.0066,-0.0081,-0.0084,-0.0086,-0.0062,-0.0062,-0.0061,-0.0061,0,0,-0.0159,-0.0146,-0.0147,-0.0143,-0.0134,-0.0133,-0.0133,-0.0129,-0.0128,-0.0123,-0.0122,-0.0119,-0.0112,-0.0109,-0.0101,-0.0103,-0.0114,-0.0095,-0.0095,-0.0098,-0.0121,-0.0126,-0.0128,-0.0109,-0.0109,-0.0109,-0.0121,0,-0.0173,-0.0173,-0.0164,-0.0167,-0.0165,-0.0153,-0.0154,-0.0148,-0.0141,-0.0139,-0.0132,-0.013,-0.0121,-0.0119,-0.012,-0.0112,-0.0118,-0.0112,-0.0108,-0.0108,-0.0109,-0.013,-0.0135,-0.0147,-0.0123,-0.0123,-0.0123,0,-0.0189,-0.0185,-0.0188,-0.0178,-0.0177,-0.0178,-0.0172,-0.0171,-0.0164,-0.0159,-0.0155,-0.0147,-0.0146,-0.0138,-0.0137,-0.0133,-0.0131,-0.0127,-0.0127,-0.0125,-0.0115,-0.0128,-0.015,-0.0152,-0.0125,-0.0125,-0.0125,0,-0.0207,-0.0202,-0.0203,-0.02,-0.0189,-0.019,-0.0185,-0.0178,-0.0176,-0.0171,-0.017,-0.0165,-0.0163,-0.0159,-0.015,-0.0144,-0.015,-0.014,-0.0145,-0.0146,-0.0146,-0.0146,-0.0168,-0.0147,-0.0147,-0.0147,-0.0147,0,-0.0223,-0.0225,-0.0211,-0.0211,-0.0213,-0.0202,-0.0204,-0.0199,-0.0193,-0.0192,-0.0181,-0.018,-0.0168,-0.0166,-0.0158,-0.0158,-0.0157,-0.0153,-0.0151,-0.0154,-0.0154,-0.0151,-0.015,-0.0147,-0.0147,-0.0147,-0.0147,0,-0.0243,-0.0234,-0.0234,-0.0224,-0.0221,-0.0223,-0.0214,-0.0214,-0.0207,-0.0206,-0.0205,-0.0194,-0.0191,-0.0181,-0.0176,-0.0171,-0.0173,-0.017,-0.0175,-0.0174,-0.0179,-0.0178,-0.0199,-0.0201,-0.0179,-0.018,-0.018,0,-0.0253,-0.0255,-0.0244,-0.0243,-0.0239,-0.0237,-0.0234,-0.0224,-0.0222,-0.0214,-0.0215,-0.0211,-0.0207,-0.0203,-0.0194,-0.019,-0.0186,-0.0193,-0.0185,-0.0187,-0.0185,-0.0184,-0.0184,-0.0195,-0.0195,-0.0195,-0.0195,0,-0.0272,-0.0268,-0.0264,-0.026,-0.0257,-0.0253,-0.0248,-0.0248,-0.0236,-0.0234,-0.0231,-0.0228,-0.0222,-0.0218,-0.0213,-0.0208,-0.0199,-0.0198,-0.0199,-0.0201,-0.0204,-0.0202,-0.0179,-0.0198,-0.0197,-0.0197,-0.0197,-0.0197,-0.0287,-0.0287,-0.028,-0.0277,-0.0272,-0.0268,-0.0267,-0.0261,-0.0258,-0.0252,-0.0246,-0.0244,-0.0237,-0.0228,-0.0224,-0.0222,-0.0217,-0.0219,-0.0219,-0.0219,-0.022,-0.0206,-0.0221,-0.0221,-0.0221,-0.0221,-0.0221,0,-0.0305,-0.03,-0.0297,-0.029,-0.0288,-0.0281,-0.0275,-0.0273,-0.0271,-0.0266,-0.0262,-0.0258,-0.0254,-0.0246,-0.0241,-0.0241,-0.0237,-0.024,-0.0239,-0.0238,-0.0225,-0.0224,-0.0243,-0.0243,-0.0243,-0.0243,-0.0243,-0.0243,-0.0314,-0.0314,-0.0308,-0.0306,-0.0301,-0.0298,-0.0295,-0.0291,-0.0286,-0.0283,-0.0279,-0.0274,-0.0267,-0.0262,-0.0258,-0.0256,-0.0254,-0.0258,-0.0254,-0.0242,-0.0239,-0.0237,-0.0237,-0.0258,-0.0258,-0.0268,-0.0268,-0.0268]},{"header":{"parameterUnit":"m.s-1","parameterCategory":1,"la1":30.2991,"la2":30.254,"lo1":-89.0895,"lo2":-89.0444,"dy":0.0017,"dx":0.0017,"nx":28,"ny":28,"refTime":"2024-04-18T21:00:00:Z","depth":0,"parameterNumber":3,"parameterNumberName":"V-component_of_WINDS"},"data":[0,0,0,0,0,0,0,0,0,0,0,0,0,0,0,0,0,0,0,0,0,0,0,0,0,0,0,0,0,0,0,0,0,0,0,0,0,0,0,0,0,0,0,0,0,0,0,0,0,0,0,0,0,0,0,0,0,0,3.0577,3.0578,0,3.0649,3.065,3.0651,3.0692,3.0692,3.0693,3.0693,3.0761,3.0763,3.0764,0,0,0,0,0,0,0,0,0,0,0,0,0,3.047,3.0472,3.0577,3.0578,3.0579,3.0649,3.065,3.0651,3.0692,3.0692,3.0693,3.0693,3.0761,3.0763,3.0765,0,0,0,0,0,0,0,0,0,0,0,0,0,3.0526,3.0472,3.0576,3.0608,3.0611,3.0649,3.065,3.0651,3.0692,3.0692,3.0693,3.0693,3.076,3.0762,3.0765,3.0775,0,0,3.0772,3.0774,0,0,0,0,0,0,0,0,3.0523,3.053,3.0602,3.0606,3.061,3.0662,3.0637,3.0692,3.0692,3.0661,3.0693,3.0693,3.0728,3.0733,3.0746,3.0778,3.0781,3.0773,3.0774,3.0775,3.0776,0,0,0,0,0,0,0,3.0519,3.0527,3.0605,3.0603,3.0608,3.0617,3.0625,3.0648,3.0692,3.0664,3.0667,3.0675,3.073,3.0743,3.0747,3.0782,3.0773,3.0775,3.0776,3.0777,3.0827,3.0827,0,0,0,0,0,0,3.0511,3.0524,3.0603,3.0607,3.0566,3.0618,3.0628,3.0645,3.0692,3.0699,3.0675,3.0677,3.0739,3.0744,3.075,3.0766,3.0775,3.0778,3.0779,3.0827,3.0827,3.0827,0,0,0,0,0,0,3.0509,3.0518,3.06,3.0567,3.0578,3.062,3.0639,3.0646,3.066,3.07,3.0708,3.0681,3.0739,3.0746,3.0769,3.0769,3.0779,3.0781,3.0828,3.0827,3.0827,3.0796,0,0,0,0,0,0,3.0505,3.0517,3.0522,3.0566,3.0579,3.0619,3.0639,3.0647,3.0665,3.0668,3.0708,3.0715,3.074,3.0765,3.0771,3.0772,3.0783,3.0828,3.0827,3.0827,3.0798,3.0795,3.0793,0,0,0,0,0,3.0501,3.0509,3.0522,3.0531,3.0587,3.0619,3.0626,3.0656,3.0664,3.0669,3.0696,3.0713,3.0768,3.0767,3.0775,3.0776,3.0828,3.0828,3.0827,3.0799,3.0796,3.0793,0,0,0,0,0,0,3.0461,3.0515,3.053,3.0553,3.0581,3.0626,3.0633,3.0652,3.0677,3.0679,3.0714,3.0723,3.0742,3.0761,3.0759,3.0789,3.08,3.0801,3.0775,3.0773,3.0771,3.0765,3.0785,0,0,0,0,0,3.0455,3.0478,3.0524,3.0539,3.0553,3.059,3.0605,3.0627,3.0656,3.0668,3.0696,3.0723,3.0746,3.076,3.0784,3.0801,3.081,3.0805,3.0803,3.0801,3.0801,3.0812,3.0811,3.0826,3.0826,3.0826,0,0,3.0442,3.0475,3.0487,3.0532,3.0556,3.0578,3.06,3.0622,3.0638,3.0671,3.0695,3.0716,3.0748,3.0768,3.0778,3.0785,3.0799,3.08,3.0798,3.08,3.0812,3.081,3.0809,3.0825,3.0826,3.0826,0,0,3.0431,3.0458,3.0474,3.0499,3.0536,3.0562,3.0565,3.0608,3.0624,3.0648,3.0674,3.0692,3.0732,3.0754,3.077,3.0768,3.0785,3.0774,3.0762,3.0772,3.0771,3.077,3.077,3.0769,3.0775,3.0775,3.0775,0,3.041,3.0445,3.0479,3.0501,3.0519,3.0552,3.0569,3.059,3.0632,3.0644,3.0651,3.0702,3.0726,3.0752,3.0751,3.0763,3.0768,3.077,3.0769,3.0768,3.0768,3.0768,3.0768,3.0773,3.0773,3.0774,3.0774,0,3.0418,3.0442,3.045,3.0493,3.0513,3.0531,3.0567,3.0582,3.0602,3.0626,3.065,3.068,3.0711,3.0719,3.0737,3.0747,3.075,3.0763,3.0775,3.0765,3.0765,3.0765,3.0771,3.0772,3.0772,3.0772,0,0,3.0382,3.0445,3.0447,3.0468,3.0512,3.053,3.0549,3.0582,3.0594,3.0622,3.0639,3.0672,3.0684,3.0703,3.0724,3.0733,3.073,3.0744,3.0745,3.0741,3.0743,3.0734,3.0734,3.0741,3.0742,3.0742,3.0741,0,3.0377,3.0416,3.0448,3.0474,3.0497,3.0529,3.0546,3.0574,3.0597,3.0618,3.0643,3.0666,3.068,3.0692,3.0702,3.0728,3.0731,3.0728,3.0757,3.0757,3.0748,3.0734,3.0724,3.0722,3.0741,3.0741,3.0741,0,3.0377,3.0406,3.0435,3.0478,3.0489,3.0504,3.0536,3.0556,3.0589,3.0605,3.0626,3.0649,3.067,3.0679,3.0708,3.0706,3.0719,3.0734,3.0735,3.0739,3.0749,3.0738,3.0722,3.0721,3.0742,3.0742,3.0742,0,3.0348,3.0395,3.0419,3.0435,3.0485,3.0495,3.0516,3.0549,3.0567,3.0594,3.0606,3.0634,3.065,3.0671,3.07,3.0705,3.0726,3.0738,3.074,3.0739,3.0743,3.0742,3.0729,3.0751,3.0751,3.0751,3.0751,0,3.034,3.0356,3.0407,3.0422,3.0441,3.0477,3.0495,3.0518,3.0547,3.0566,3.0595,3.0611,3.0649,3.067,3.0692,3.0713,3.072,3.0733,3.0739,3.0731,3.0729,3.074,3.0741,3.0751,3.0751,3.0751,3.0751,0,3.0312,3.0346,3.0375,3.0421,3.0433,3.0445,3.0484,3.0499,3.0524,3.0547,3.0555,3.0593,3.062,3.0651,3.0687,3.0702,3.0721,3.0729,3.071,3.0714,3.0714,3.0713,3.0707,3.0709,3.0729,3.0728,3.0728,0,3.0304,3.0318,3.0367,3.0382,3.0403,3.0428,3.0447,3.0482,3.05,3.0538,3.0548,3.0577,3.0602,3.0642,3.0673,3.07,3.071,3.0706,3.0714,3.0706,3.071,3.0709,3.0711,3.0703,3.0703,3.0703,3.0702,0,3.0287,3.0304,3.0331,3.0364,3.0386,3.0413,3.0441,3.0452,3.0493,3.0511,3.054,3.0559,3.0597,3.0625,3.0656,3.0677,3.0696,3.07,3.0702,3.0694,3.0683,3.0689,3.0705,3.07,3.07,3.07,3.07,3.07,3.0269,3.0284,3.0321,3.035,3.0375,3.0401,3.0418,3.0446,3.0471,3.0505,3.0524,3.0552,3.0584,3.0629,3.0649,3.067,3.0677,3.0679,3.068,3.068,3.0678,3.0679,3.0676,3.0676,3.0676,3.0676,3.0676,0,3.0254,3.028,3.0307,3.0346,3.0369,3.0388,3.042,3.0437,3.0462,3.0491,3.0516,3.0548,3.0576,3.0609,3.0639,3.0649,3.0659,3.0656,3.0656,3.066,3.067,3.0666,3.0648,3.0648,3.0648,3.0648,3.0648,3.0648,3.0249,3.0275,3.0296,3.0334,3.036,3.0389,3.0406,3.0429,3.0453,3.0489,3.0513,3.0535,3.0566,3.0598,3.0624,3.0633,3.0642,3.0637,3.0648,3.0657,3.0659,3.0662,3.0658,3.0638,3.0638,3.0636,3.0636,3.0636]}]]